Location: Zagreb
(45.8000°N, 16.0000°E)
Time: 14:21:40
(UTC+02:00)

Transit 2A Rocket - Pass Details

Date: 14 August 2022
Orbit: 593 x 907 km, 66.7° (Epoch: 25 September)

Event Time Altitude Azimuth Distance (km) Brightness Sun altitude
Rises 21:00:33 0° 275° (W) 2,908 9.3 -9.3°
Reaches altitude 10° 21:04:44 10° 313° (NW) 1,958 8.7 -9.9°
Maximum altitude 21:05:52 11° 328° (NNW) 1,895 8.2 -10.1°
Drops below altitude 10° 21:06:59 10° 344° (NNW) 1,945 7.9 -10.3°
Sets 21:11:05 0° 22° (NNE) 2,841 8.1 -10.9°
